This is the latest recevied weather packets stored in our database for station/object IV3CGM-13. If no packets are shown the sender has not sent any weather packets the latest 10 day(s).
| Time | Temp. | Humidity | Pressure | Rain* | Wind** | Luminosity | Snow |
|---|---|---|---|---|---|---|---|
| 1788525774 | 28.89° C | 48% | 1019.1 hPa | 0 mm | - | 682 W/m² | - |
| 1788525086 | 28.89° C | 49% | 1019.2 hPa | 0 mm | - | 710 W/m² | - |
| 1788524349 | 28.33° C | 51% | 1019.2 hPa | 0 mm | - | 629 W/m² | - |
| 1788523649 | 28.89° C | 47% | 1019.4 hPa | 0 mm | - | 730 W/m² | - |
| 1788522961 | 28.33° C | 50% | 1019.5 hPa | 0 mm | - | 740 W/m² | - |
| 1788522274 | 28.33° C | 50% | 1019.5 hPa | 0 mm | - | 578 W/m² | - |
| 1788521586 | 28.33° C | 51% | 1019.7 hPa | 0 mm | - | 759 W/m² | - |
| 1788520849 | 27.78° C | 51% | 1019.7 hPa | 0 mm | - | 763 W/m² | - |
| 1788520148 | 28.33° C | 51% | 1019.7 hPa | 0 mm | - | 764 W/m² | - |
| 1788519461 | 27.22° C | 51% | 1019.8 hPa | 0 mm | - | 756 W/m² | - |
| 1788518773 | 27.78° C | 50% | 1019.9 hPa | 0 mm | - | 745 W/m² | - |
| 1788518086 | 28.33° C | 52% | 1019.8 hPa | 0 mm | - | 744 W/m² | - |
| 1788517350 | 27.22° C | 52% | 1019.9 hPa | 0 mm | - | 723 W/m² | - |
| 1788516636 | 27.78° C | 50% | 1019.9 hPa | 0 mm | - | 720 W/m² | - |
| 1788515936 | 27.78° C | 53% | 1019.9 hPa | 0 mm | - | 710 W/m² | - |
| 1788515248 | 28.33° C | 48% | 1019.9 hPa | 0 mm | - | 698 W/m² | - |
| 1788514549 | 27.22° C | 54% | 1020 hPa | 0 mm | - | 691 W/m² | - |
| 1788513861 | 27.22° C | 52% | 1020 hPa | 0 mm | - | 677 W/m² | - |
| 1788513161 | 27.78° C | 50% | 1020 hPa | 0 mm | - | 649 W/m² | - |
| 1788512473 | 27.78° C | 51% | 1020 hPa | 0 mm | - | 625 W/m² | - |
| 1788511773 | 26.67° C | 54% | 1019.9 hPa | 0 mm | - | 595 W/m² | - |
| 1788511073 | 26.67° C | 54% | 1020.1 hPa | 0 mm | - | 574 W/m² | - |
| 1788510373 | 26.67° C | 55% | 1020.1 hPa | 0 mm | - | 508 W/m² | - |
| 1788509685 | 26.67° C | 52% | 1019.9 hPa | 0 mm | - | 502 W/m² | - |
| 1788508985 | 26.67° C | 53% | 1019.8 hPa | 0 mm | - | 472 W/m² | - |
* Rain latest hour (hover to see other rain measurements)
** Current wind speed in m/s (hover to see current wind gust speed)